Погода в Торревьехе

Испания     37°58′59″N   0°41′23″E
темп.,
°C
ветер,
м/с
пор.,
м/с
влажн.,
%
обл.,
%
осадки,
мм/ч
давл.,
гПа
погр.,
м
9 мая, вс
вс923:00+18св3375100 0.0 101378
02:00+17сз227788 0.0 101222
05:00+18з2261100 0.0 100912
08:00+20ююв3351100 0.0 101046
11:00+22ю7960100 0.0 1009510
14:00+26ююз913457 0.0 10081070
17:00+27ююз812394 0.0 10051240
20:00+23ю712560 0.0 1004432
10 мая, пн
пн1023:00+22ссз91347100 0.0 1008398
02:00+18всв116997 0.0 101016
05:00+19ююв3369100 0.2 101073
08:00+17ссв1273100 1.1 1011159
11:00+17ссв226778 0.8 1012504
14:00+18всв336295 1.2 1011523
17:00+22юв34554 0.1 10091072
20:00+21с455410 0.3 1009511
11 мая, вт
вт1123:00+18сз5115565 0.7 1012328
02:00+17зсз8154999 0.7 1013806
05:00+16зсз7135032 0.0 1014961
08:00+16зсз712500 0.0 10161054
11:00+19зсз912340 0.0 10181682
14:00+21зсз911265 0.0 10191841
17:00+24зсз710230 0.0 10172177
20:00+21ююз77380 0.0 1017528
12 мая, ср
ср1223:00+17юз610620 0.0 1020274
02:00+16зюз34590 0.0 101967
05:00+16з22550 0.0 101824
08:00+17зюз11530 0.0 101823
11:00+21ююз23405 0.0 1018813
14:00+23ююз35350 0.0 10161618
17:00+23ю674391 0.0 1014952
20:00+23юз683936 0.0 1015483
13 мая, чт
чт1323:00+19ссз48454 0.0 1017221
02:00+18сз225151 0.0 101618
05:00+17ссз335263 0.0 101635
08:00+17з24528 0.0 1016139
11:00+21з35405 0.0 1016993
14:00+23ю55418 0.0 10141542
17:00+23ю985097 0.0 1011811
20:00+20ю786740 0.0 1011490